Location: Altoona
(40.5167°N, 78.4000°W)
Time: 02:53:53
(UTC-04:00)

Daily predictions for brighter satellites

Satellite Brightness Start Highest point End
(mag) Time Altitude Azimuth Time Altitude Azimuth Time Altitude Azimuth
Lacrosse 5 3.7 00:03:57 10° NW 00:06:09 26° NW 00:06:09 26° NW
Mayak 1.7 00:15:39 10° NNE 00:15:54 11° NNE 00:15:54 11° NNE
SeaSat 1 4.4 00:22:25 24° NNE 00:22:25 24° NNE 00:25:04 10° N
Cosmos 2369 Rocket 4.3 00:35:02 10° NW 00:37:17 19° WNW 00:37:17 19° WNW
CZ-2C R/B 4.3 00:40:16 10° N 00:43:50 29° NW 00:43:50 29° NW
ATLAS 5 CENTAUR R/B 4.4 00:56:45 10° WNW 00:58:46 19° WNW 00:58:46 19° WNW
ADEOS Rocket 3.7 01:24:36 10° N 01:29:47 52° NNW 01:29:47 52° NNW
Mayak 1.8 01:52:23 10° NNW 01:52:31 10° NNW 01:52:31 10° NNW
CZ-2D R/B 4.4 02:02:11 10° NE 02:04:37 16° E 02:04:37 16° E
SL-16 R/B 4.1 02:08:59 24° E 02:10:49 28° ENE 02:16:00 10° N
Lacrosse 4 Rocket 4.1 02:12:15 10° NNW 02:13:36 18° N 02:13:36 18° N
Cosmos 909 Rocket 4.5 02:13:44 10° NNW 02:18:52 59° N 02:18:52 59° N
Lacrosse 5 rocket 4.0 02:25:23 18° NE 02:25:23 18° NE 02:26:32 10° NE
Cosmos 1980 Rocket 3.5 02:19:38 10° N 02:24:41 33° ENE 02:25:22 32° ENE
Cosmos 1697 Rocket 3.6 02:20:45 10° NNW 02:24:59 46° NNE 02:24:59 46° NNE
Resurs 1-4 Rocket 3.6 02:30:10 10° NE 02:33:57 29° E 02:33:57 29° E
Cosmos 2082 Rocket 2.9 02:38:11 51° NNE 02:38:11 51° NNE 02:42:20 10° NNE
ATLAS CENTAUR R/B 4.5 02:35:19 60° SSW 02:38:22 83° SE 03:07:16 10° NE
Cosmos 1607 4.5 02:55:32 52° NW 02:55:32 52° NW 03:01:41 10° NNE
NPP 4.1 02:52:13 10° NNE 02:56:42 59° NE 02:56:42 59° NE
ARIANE 5 R/B 3.8 02:58:34 10° NNE 03:03:19 34° E 03:03:25 34° E
Cosmos 1833 Rocket 3.4 03:08:48 44° NW 03:08:48 44° NW 03:13:28 10° NNE
Cosmos 2195 Rocket 4.3 03:06:19 10° N 03:12:29 83° E 03:12:35 82° ESE
Timation 2 Rocket 4.4 03:22:22 44° SE 03:23:09 46° ESE 03:28:50 10° NE
SL-08 R/B 4.1 03:28:01 46° NNW 03:28:01 46° NNW 03:31:30 10° NNW
Cosmos 1092 Rocket 4.3 03:21:37 10° NNW 03:27:05 53° WNW 03:27:05 53° WNW
Cosmos 44 4.4 03:24:57 10° NNW 03:30:00 48° NE 03:35:12 10° SE
H-2A R/B 3.7 03:26:10 10° N 03:29:01 38° NNW 03:29:01 38° NNW
Cosmos 2142 Rocket 4.3 03:30:35 75° WSW 03:30:53 77° W 03:37:03 10° N
Cosmos 1726 Rocket 4.3 03:26:44 10° N 03:30:29 50° NE 03:30:29 50° NE
Cosmos 841 Rocket 4.4 03:31:17 37° ESE 03:32:00 39° ESE 03:36:49 10° NE
IRS-1D 3.5 03:28:29 10° NNE 03:33:43 86° ESE 03:33:43 86° ESE
ATLAS 3B R/B 3.2 03:32:22 43° SSE 03:34:13 53° ESE 03:40:57 10° NE
Cosmos 1655 Rocket 4.1 03:31:18 10° N 03:37:41 75° E 03:40:05 41° SSE
Cosmos 2360 4.5 03:36:17 10° NNW 03:40:54 52° WNW 03:40:54 52° WNW
Cosmos 1428 Rocket 4.3 03:36:42 10° N 03:42:54 87° W 03:44:18 57° S
NOSS 3-2 (A) 4.3 03:42:39 32° SSE 03:44:19 39° ESE 03:50:08 10° NE
CZ-2D R/B 2.1 03:40:35 10° N 03:45:54 62° WNW 03:45:57 62° WNW
AQUA 4.5 03:41:56 10° N 03:45:49 43° NW 03:45:49 43° NW
Cosmos 1766 4.1 03:43:10 10° N 03:46:07 48° NNE 03:46:07 48° NNE
Cosmos 2228 3.2 03:44:41 10° N 03:48:56 64° E 03:48:57 64° E
Okean 1-7 Rocket 4.3 03:52:28 44° NW 03:52:28 44° NW 03:56:02 10° N
Cosmos 1066 Rocket 4.4 03:52:30 51° WNW 03:52:30 51° WNW 03:57:45 10° N
SL-16 R/B 2.7 03:54:04 48° W 03:54:06 48° W 04:00:10 10° NNW
ADEOS 4.0 03:49:02 10° NNE 03:54:11 57° E 03:55:50 40° SSE
ADEOS II 3.3 03:51:05 10° NNE 03:55:54 36° E 03:58:59 19° SSE
Cosmos 1763 Rocket 3.4 03:55:40 69° SSW 03:56:18 85° WNW 04:01:40 10° NNE
Cosmos 2058 Rocket 3.1 03:53:08 10° N 03:57:35 76° E 03:58:07 65° SE
ERS-1 4.4 03:54:15 10° N 03:59:10 62° WNW 03:59:25 61° W
Cosmos 1375 Rocket 4.5 03:57:52 52° SW 03:59:32 78° WNW 04:06:08 10° NNE
BREEZE-M DEB (TANK) 4.2 03:40:45 10° WNW 03:59:46 75° NNE 04:04:07 10° ESE
Cosmos 1606 Rocket 4.2 03:55:43 10° NNW 03:58:49 41° NW 03:58:49 41° NW
USA 215 4.4 03:55:26 10° ENE 04:01:08 31° SE 04:04:19 21° S
Lacrosse 5 rocket 3.7 04:01:03 14° NW 04:02:10 15° NNW 04:04:38 10° N
Cosmos 2360 Rocket 4.0 04:01:12 10° N 04:06:09 31° ENE 04:11:04 10° ESE
Cosmos 44 Rocket 3.7 04:02:29 10° NNW 04:07:37 67° ENE 04:12:46 10° SE
SJ 16-02 3.2 04:04:09 10° N 04:08:04 30° ENE 04:11:58 10° SE
Cosmos 1980 Rocket 3.2 04:03:36 10° NW 04:07:04 29° WNW 04:07:04 29° WNW
BREEZE-M R/B 2.8 04:09:56 65° NNW 04:09:56 65° NNW 04:14:44 10° NE
Cosmos 1892 Rocket 3.8 04:13:42 50° WNW 04:13:42 50° WNW 04:17:51 10° N
Resurs 1-4 Rocket 2.9 04:09:53 10° N 04:14:33 33° WNW 04:15:03 33° W
Cosmos 1758 3.9 04:13:46 10° N 04:17:41 56° E 04:20:02 22° SSE
Cosmos 1898 Rocket 4.2 04:14:16 10° NW 04:18:19 35° W 04:18:19 35° W
Meteor 1-21 4.1 04:19:27 41° SSW 04:21:27 71° W 04:27:05 10° N
Cosmos 2082 Rocket 4.1 04:20:01 14° WNW 04:21:33 15° NW 04:24:46 10° NNW
SL-16 R/B 2.1 04:19:03 10° NNW 04:24:44 81° WSW 04:30:24 10° SSE
Cosmos 1937 Rocket 3.7 04:21:15 10° NNW 04:26:10 45° WSW 04:26:50 42° SW
ERBS 3.3 04:31:08 34° SSE 04:31:39 37° SE 04:34:48 10° ENE
Cosmos 1125 Rocket 4.4 04:26:51 10° N 04:32:02 50° ENE 04:37:08 10° SE
BREEZE-M DEB (TANK) 2.8 04:32:56 33° ESE 04:32:56 33° ESE 04:34:36 10° ENE
Helios 1A Rocket 3.5 04:31:28 10° N 04:35:20 38° WNW 04:35:51 37° W
UNKNOWN OBJECT B 3.1 04:33:17 10° N 04:36:57 44° WNW 04:37:20 43° W
Cosmos 1378 3.5 04:35:54 27° S 04:37:48 64° E 04:41:33 10° NNE
Cosmos 2322 Rocket 2.1 04:33:11 10° NNW 04:38:45 65° WSW 04:44:17 10° S
Cosmos 1470 3.1 04:37:26 10° N 04:41:25 66° E 04:45:20 10° SSE
USA 238 DEB 4.0 04:38:41 28° WSW 04:42:16 54° NW 04:49:06 10° NNE
ARIANE 5 R/B 3.6 04:37:48 10° N 04:42:18 30° WNW 04:43:46 26° W
USA 238 4.0 04:38:47 28° WSW 04:42:22 54° NW 04:49:13 10° NNE
Cosmos 372 Rocket 4.2 04:41:27 10° NNW 04:46:41 72° ENE 04:51:50 10° SSE
CZ-2D R/B 4.2 04:44:44 10° N 04:48:30 35° WNW 04:49:32 30° WSW
Cosmos 1833 4.3 04:46:46 19° SSW 04:50:59 83° ESE 04:56:48 10° NNE
Cosmos 292 Rocket 4.2 04:50:52 29° WSW 04:52:52 44° WNW 04:57:29 10° N
Cosmos 1707 2.9 04:50:02 16° S 04:53:00 73° E 04:56:54 10° NNE
Cosmos 836 Rocket 4.4 04:51:58 21° SSW 04:55:30 80° WNW 05:00:44 10° NNE
CZ-4B R/B 3.9 04:55:33 10° NNE 04:59:33 46° E 05:03:20 10° S
Okean O Rocket 3.5 04:59:14 10° NE 05:03:04 29° E 05:06:51 10° SSE
DNEPR-1 R/B 4.3 05:08:19 21° WSW 05:10:40 39° NW 05:15:01 10° NNE
Cosmos 44 4.5 05:06:45 10° WNW 05:11:00 25° WSW 05:15:18 10° SSW
Cosmos 2266 Rocket 4.5 05:06:08 10° NNW 05:11:41 38° W 05:17:18 10° SSW
USA 161 4.1 05:09:16 10° SE 05:11:47 25° ENE 05:14:14 10° NNE
PSLV R/B 3.4 05:08:55 10° N 05:13:09 84° WNW 05:17:19 10° SSW
Cosmos 1244 Rocket 4.4 05:08:31 10° N 05:14:41 85° W 05:20:52 10° S
NOSS 3-2 (C) 3.6 05:14:35 16° SW 05:19:20 64° NW 05:25:52 10° NNE
PSLV R/B 2.9 05:19:42 21° WSW 05:21:31 78° SSE 05:24:31 10° E
Cosmos 540 Rocket 4.2 05:18:28 16° WSW 05:21:57 36° WNW 05:26:42 10° N
Cosmos 1953 Rocket 4.0 05:18:21 10° S 05:22:46 66° E 05:27:11 10° NNE
PSLV R/B 3.7 05:19:38 10° NNE 05:23:29 85° E 05:27:14 10° SSW
Cosmos 2322 3.7 05:18:58 10° NNW 05:24:43 86° WSW 05:30:27 10° SSE
ATLAS 3B R/B 3.6 05:19:38 14° WSW 05:25:08 36° NW 05:31:25 10° NNE
Cosmos 2237 4.2 05:19:43 10° NNW 05:25:29 88° WSW 05:31:12 10° SSE
Cosmos 1953 3.3 05:22:35 10° NNW 05:26:05 28° W 05:29:32 10° SSW
Cosmos 1812 Rocket 4.1 05:23:11 10° NNW 05:27:19 37° W 05:31:24 10° SSW
Cosmos 1400 Rocket 3.6 05:24:54 10° S 05:28:43 54° E 05:32:37 10° NNE
ATLAS CENTAUR R/B 1.5 05:25:22 10° NW 05:29:49 69° WSW 05:34:31 10° SSE
S3M 4.2 05:23:57 10° S 05:30:03 77° E 05:36:10 10° N
MOS 1-B 4.4 05:25:33 10° N 05:31:22 76° WNW 05:37:10 10° SSW
NOSS 3-2 (A) 4.2 05:30:03 12° WSW 05:35:07 39° NW 05:41:16 10° NNE
ADEOS II 3.1 05:31:02 10° N 05:35:27 28° WNW 05:39:52 10° SW
Cosmos 1758 Rocket 3.5 05:33:39 10° SSW 05:37:57 70° W 05:42:19 10° N
CENTAUR R/B 2.6 05:37:16 10° SSW 05:43:09 87° ESE 05:49:58 10° NE
USA 215 3.4 05:37:55 10° NE 05:44:26 72° NW 05:50:55 10° WSW
SJ 16-02 2.5 05:43:00 10° NW 05:46:29 23° W 05:49:58 10° SSW
Cosmos 2360 Rocket 2.7 05:45:01 10° NW 05:50:11 38° WSW 05:55:19 10° S
